User: anonymous   Login
Location: Unspecified
(0.0000°N, 0.0000°E)
Time: 07:00:57
(UTC+00:00)
Language:

DRAGONSAT - Orbit

View from above orbital plane
View from above orbital plane
View from above satellite
View from above satellite

Ground track
Ground track

The orbit data is extracted from the following two-line orbital elements,

1 35690U 09038B   10076.22711312  .05715194  12509-4  31481-3 0  9999
2 35690 051.6170 315.4586 0004999 310.9891 057.3269 16.42150010 36561
Epoch (UTC): 17 March 2010 05:27:02
Eccentricity: 0.0004999
inclination: 51.6170°
perigee height: 157 km
apogee height: 163 km
right ascension of ascending node: 315.4586°
argument of perigee: 310.9891°
revolutions per day: 16.42150010
mean anomaly at epoch: 57.3269°
orbit number at epoch: 3656

The dashed part of the orbit path shows where the satellite is in the earth's shadow,  

DLR